Time,TemperatureF,DewpointF,PressureIn,WindDirection,WindDirectionDegrees,WindSpeedMPH,WindSpeedGustMPH,Humidity,HourlyPrecipIn,Conditions,Clouds,dailyrainin,SoftwareType,DateUTC
2013-07-11 00:11:00,61.6,40.0,30.00,WNW,289,2.0,-999.0,46,-99.99,,,0.00,weatherlink.com 1.10,2013-07-11 07:11:00,
2013-07-11 00:26:00,60.8,40.0,30.00,West,270,1.0,-999.0,47,-99.99,,,0.00,weatherlink.com 1.10,2013-07-11 07:26:00,
2013-07-11 00:41:00,60.7,40.0,30.00,West,278,0.0,-999.0,47,-99.99,,,0.00,weatherlink.com 1.10,2013-07-11 07:41:00,
2013-07-11 00:56:00,59.0,40.0,30.01,ENE,61,0.0,-999.0,50,-99.99,,,0.00,weatherlink.com 1.10,2013-07-11 07:56:00,
2013-07-11 01:11:00,56.3,43.0,30.00,ESE,107,2.0,-999.0,62,-99.99,,,0.00,weatherlink.com 1.10,2013-07-11 08:11:00,
2013-07-11 01:26:00,55.5,40.0,30.00,East,86,1.0,-999.0,57,-99.99,,,0.00,weatherlink.com 1.10,2013-07-11 08:26:00,
2013-07-11 01:41:00,53.8,40.0,30.01,ESE,122,0.0,-999.0,60,-99.99,,,0.00,weatherlink.com 1.10,2013-07-11 08:41:00,
2013-07-11 01:56:00,53.6,43.0,30.01,SE,135,1.0,-999.0,68,-99.99,,,0.00,weatherlink.com 1.10,2013-07-11 08:56:00,
2013-07-11 02:11:00,55.3,41.0,30.01,SW,214,0.0,-999.0,58,-99.99,,,0.00,weatherlink.com 1.10,2013-07-11 09:11:00,
2013-07-11 02:26:00,53.8,42.0,30.01,SSW,213,0.0,-999.0,64,-99.99,,,0.00,weatherlink.com 1.10,2013-07-11 09:26:00,
2013-07-11 02:41:00,53.8,40.0,30.02,SSW,205,2.0,-999.0,61,-99.99,,,0.00,weatherlink.com 1.10,2013-07-11 09:41:00,
2013-07-11 02:56:00,53.0,40.0,30.01,SW,224,4.0,-999.0,61,-99.99,,,0.00,weatherlink.com 1.10,2013-07-11 09:56:00,
2013-07-11 03:11:00,51.8,42.0,30.01,SE,132,1.0,-999.0,69,-99.99,,,0.00,weatherlink.com 1.10,2013-07-11 10:11:00,
2013-07-11 03:26:00,50.5,41.0,30.01,SE,136,2.0,-999.0,69,-99.99,,,0.00,weatherlink.com 1.10,2013-07-11 10:26:00,
2013-07-11 03:41:00,50.3,40.0,30.01,NNE,23,0.0,-999.0,69,-99.99,,,0.00,weatherlink.com 1.10,2013-07-11 10:41:00,
2013-07-11 03:56:00,49.3,40.0,30.02,North,354,1.0,-999.0,71,-99.99,,,0.00,weatherlink.com 1.10,2013-07-11 10:56:00,
2013-07-11 04:11:00,55.1,42.0,30.02,NE,40,5.0,-999.0,61,-99.99,,,0.00,weatherlink.com 1.10,2013-07-11 11:11:00,
2013-07-11 04:26:00,56.1,41.0,30.02,NNE,25,1.0,-999.0,58,-99.99,,,0.00,weatherlink.com 1.10,2013-07-11 11:26:00,
2013-07-11 04:41:00,53.9,40.0,30.02,North,1,0.0,-999.0,60,-99.99,,,0.00,weatherlink.com 1.10,2013-07-11 11:41:00,
2013-07-11 04:56:00,52.5,40.0,30.02,South,188,0.0,-999.0,62,-99.99,,,0.00,weatherlink.com 1.10,2013-07-11 11:56:00,
2013-07-11 05:11:00,49.7,39.0,30.03,South,170,2.0,-999.0,67,-99.99,,,0.00,weatherlink.com 1.10,2013-07-11 12:11:00,
2013-07-11 05:26:00,49.3,39.0,30.03,South,172,4.0,-999.0,68,-99.99,,,0.00,weatherlink.com 1.10,2013-07-11 12:26:00,
2013-07-11 05:41:00,48.9,40.0,30.03,ESE,103,1.0,-999.0,72,-99.99,,,0.00,weatherlink.com 1.10,2013-07-11 12:41:00,
2013-07-11 05:56:00,49.3,39.0,30.03,SSW,195,0.0,-999.0,68,-99.99,,,0.00,weatherlink.com 1.10,2013-07-11 12:56:00,
2013-07-11 06:11:00,51.3,39.0,30.03,East,90,3.0,-999.0,64,-99.99,,,0.00,weatherlink.com 1.10,2013-07-11 13:11:00,
2013-07-11 06:26:00,53.6,40.0,30.03,SSE,159,0.0,-999.0,61,-99.99,,,0.00,weatherlink.com 1.10,2013-07-11 13:26:00,
2013-07-11 06:41:00,55.3,41.0,30.03,SE,143,0.0,-999.0,58,-99.99,,,0.00,weatherlink.com 1.10,2013-07-11 13:41:00,
2013-07-11 07:11:00,59.3,39.0,30.02,ENE,60,4.0,-999.0,47,-99.99,,,0.00,weatherlink.com 1.10,2013-07-11 14:11:00,
2013-07-11 07:56:00,64.0,40.0,30.03,NE,36,4.0,-999.0,42,-99.99,,,0.00,weatherlink.com 1.10,2013-07-11 14:56:00,
2013-07-11 08:11:00,64.6,38.0,30.03,NW,326,4.0,-999.0,38,-99.99,,,0.00,weatherlink.com 1.10,2013-07-11 15:11:00,
2013-07-11 08:26:00,65.3,38.0,30.03,NNW,333,3.0,-999.0,37,-99.99,,,0.00,weatherlink.com 1.10,2013-07-11 15:26:00,
2013-07-11 08:41:00,65.1,39.0,30.03,NW,304,2.0,-999.0,38,-99.99,,,0.00,weatherlink.com 1.10,2013-07-11 15:41:00,
2013-07-11 08:56:00,65.6,39.0,30.03,NW,304,0.0,-999.0,38,-99.99,,,0.00,weatherlink.com 1.10,2013-07-11 15:56:00,
2013-07-11 09:11:00,66.0,37.0,30.03,West,279,0.0,-999.0,35,-99.99,,,0.00,weatherlink.com 1.10,2013-07-11 16:11:00,
2013-07-11 09:26:00,66.5,39.0,30.02,NW,321,2.0,-999.0,36,-99.99,,,0.00,weatherlink.com 1.10,2013-07-11 16:26:00,
2013-07-11 09:41:00,66.7,38.0,30.02,ESE,119,2.0,-999.0,35,-99.99,,,0.00,weatherlink.com 1.10,2013-07-11 16:41:00,
2013-07-11 09:56:00,67.2,39.0,30.02,North,354,4.0,-999.0,36,-99.99,,,0.00,weatherlink.com 1.10,2013-07-11 16:56:00,
2013-07-11 10:11:00,67.7,38.0,30.03,East,79,0.0,-999.0,34,-99.99,,,0.00,weatherlink.com 1.10,2013-07-11 17:11:00,
2013-07-11 10:26:00,68.1,39.0,30.02,NW,322,0.0,-999.0,35,-99.99,,,0.00,weatherlink.com 1.10,2013-07-11 17:26:00,
2013-07-11 10:56:00,69.3,39.0,30.02,NW,316,2.0,-999.0,33,-99.99,,,0.00,weatherlink.com 1.10,2013-07-11 17:56:00,
2013-07-11 11:11:00,69.6,38.0,30.02,NW,307,5.0,-999.0,32,-99.99,,,0.00,weatherlink.com 1.10,2013-07-11 18:11:00,
2013-07-11 11:41:00,70.5,38.0,30.02,NW,307,6.0,-999.0,31,-99.99,,,0.00,weatherlink.com 1.10,2013-07-11 18:41:00,
2013-07-11 12:11:00,70.9,40.0,30.02,NW,307,7.0,-999.0,32,-99.99,,,0.00,weatherlink.com 1.10,2013-07-11 19:11:00,
2013-07-11 12:26:00,71.9,38.0,30.01,NW,323,6.0,-999.0,29,-99.99,,,0.00,weatherlink.com 1.10,2013-07-11 19:26:00,
2013-07-11 12:41:00,72.6,39.0,30.01,NNE,28,1.0,-999.0,29,-99.99,,,0.00,weatherlink.com 1.10,2013-07-11 19:41:00,
2013-07-11 12:56:00,72.9,38.0,30.01,WNW,293,7.0,-999.0,28,-99.99,,,0.00,weatherlink.com 1.10,2013-07-11 19:56:00,
2013-07-11 13:26:00,73.3,40.0,30.01,NW,318,9.0,-999.0,30,-99.99,,,0.00,weatherlink.com 1.10,2013-07-11 20:26:00,
2013-07-11 13:41:00,73.7,38.0,30.00,ENE,69,5.0,-999.0,27,-99.99,,,0.00,weatherlink.com 1.10,2013-07-11 20:41:00,
2013-07-11 13:56:00,74.6,37.0,30.00,West,266,6.0,-999.0,26,-99.99,,,0.00,weatherlink.com 1.10,2013-07-11 20:56:00,
2013-07-11 14:26:00,75.1,39.0,29.99,WNW,293,2.0,-999.0,27,-99.99,,,0.00,weatherlink.com 1.10,2013-07-11 21:26:00,
2013-07-11 14:41:00,76.2,41.0,29.98,NNW,335,10.0,-999.0,28,-99.99,,,0.00,weatherlink.com 1.10,2013-07-11 21:41:00,
2013-07-11 14:56:00,75.4,39.0,29.98,NW,312,7.0,-999.0,27,-99.99,,,0.00,weatherlink.com 1.10,2013-07-11 21:56:00,
2013-07-11 15:11:00,76.2,40.0,29.98,NW,319,2.0,-999.0,27,-99.99,,,0.00,weatherlink.com 1.10,2013-07-11 22:11:00,
2013-07-11 15:41:00,77.2,39.0,29.97,WNW,298,12.0,-999.0,25,-99.99,,,0.00,weatherlink.com 1.10,2013-07-11 22:41:00,
2013-07-11 15:56:00,76.3,39.0,29.96,WSW,253,8.0,-999.0,26,-99.99,,,0.00,weatherlink.com 1.10,2013-07-11 22:56:00,
2013-07-11 16:11:00,76.4,38.0,29.96,NNW,327,6.0,-999.0,25,-99.99,,,0.00,weatherlink.com 1.10,2013-07-11 23:11:00,
2013-07-11 16:26:00,76.4,37.0,29.96,NNW,338,10.0,-999.0,24,-99.99,,,0.00,weatherlink.com 1.10,2013-07-11 23:26:00,
2013-07-11 16:41:00,77.2,40.0,29.95,NW,312,9.0,-999.0,26,-99.99,,,0.00,weatherlink.com 1.10,2013-07-11 23:41:00,
2013-07-11 16:56:00,76.5,38.0,29.95,WNW,293,11.0,-999.0,25,-99.99,,,0.00,weatherlink.com 1.10,2013-07-11 23:56:00,
2013-07-11 17:11:00,76.3,37.0,29.95,NW,314,9.0,-999.0,24,-99.99,,,0.00,weatherlink.com 1.10,2013-07-12 00:11:00,
2013-07-11 17:26:00,76.3,36.0,29.95,NW,311,9.0,-999.0,23,-99.99,,,0.00,weatherlink.com 1.10,2013-07-12 00:26:00,
2013-07-11 17:41:00,75.7,34.0,29.95,WNW,301,7.0,-999.0,22,-99.99,,,0.00,weatherlink.com 1.10,2013-07-12 00:41:00,
2013-07-11 17:56:00,75.6,33.0,29.95,NNE,20,10.0,-999.0,21,-99.99,,,0.00,weatherlink.com 1.10,2013-07-12 00:56:00,
2013-07-11 18:11:00,75.2,33.0,29.95,NNW,347,10.0,-999.0,21,-99.99,,,0.00,weatherlink.com 1.10,2013-07-12 01:11:00,
2013-07-11 18:26:00,74.7,33.0,29.95,NW,326,7.0,-999.0,22,-99.99,,,0.00,weatherlink.com 1.10,2013-07-12 01:26:00,
2013-07-11 18:41:00,73.8,30.0,29.95,NW,321,13.0,-999.0,20,-99.99,,,0.00,weatherlink.com 1.10,2013-07-12 01:41:00,
2013-07-11 18:56:00,72.9,31.0,29.96,North,349,9.0,-999.0,21,-99.99,,,0.00,weatherlink.com 1.10,2013-07-12 01:56:00,
2013-07-11 19:11:00,72.3,30.0,29.96,North,352,13.0,-999.0,21,-99.99,,,0.00,weatherlink.com 1.10,2013-07-12 02:11:00,
2013-07-11 19:26:00,71.1,27.0,29.96,NW,319,14.0,-999.0,19,-99.99,,,0.00,weatherlink.com 1.10,2013-07-12 02:26:00,
2013-07-11 19:41:00,70.2,25.0,29.97,NNW,334,8.0,-999.0,18,-99.99,,,0.00,weatherlink.com 1.10,2013-07-12 02:41:00,
2013-07-11 19:56:00,69.2,25.0,29.97,NW,313,7.0,-999.0,19,-99.99,,,0.00,weatherlink.com 1.10,2013-07-12 02:56:00,
2013-07-11 20:11:00,67.8,25.0,29.97,NW,326,10.0,-999.0,20,-99.99,,,0.00,weatherlink.com 1.10,2013-07-12 03:11:00,
2013-07-11 20:26:00,66.2,27.0,29.98,North,8,12.0,-999.0,23,-99.99,,,0.00,weatherlink.com 1.10,2013-07-12 03:26:00,
2013-07-11 20:41:00,64.8,26.0,29.98,NNW,345,8.0,-999.0,23,-99.99,,,0.00,weatherlink.com 1.10,2013-07-12 03:41:00,
2013-07-11 21:11:00,61.8,24.0,29.98,WNW,303,4.0,-999.0,24,-99.99,,,0.00,weatherlink.com 1.10,2013-07-12 04:11:00,
2013-07-11 21:26:00,61.0,22.0,29.98,NNW,346,5.0,-999.0,22,-99.99,,,0.00,weatherlink.com 1.10,2013-07-12 04:26:00,
2013-07-11 21:41:00,60.4,22.0,29.99,NNW,335,6.0,-999.0,23,-99.99,,,0.00,weatherlink.com 1.10,2013-07-12 04:41:00,
2013-07-11 21:56:00,59.5,21.0,30.00,NE,53,2.0,-999.0,23,-99.99,,,0.00,weatherlink.com 1.10,2013-07-12 04:56:00,
2013-07-11 22:11:00,58.8,21.0,30.00,NNE,15,4.0,-999.0,23,-99.99,,,0.00,weatherlink.com 1.10,2013-07-12 05:11:00,
2013-07-11 22:26:00,58.0,21.0,30.00,East,100,0.0,-999.0,24,-99.99,,,0.00,weatherlink.com 1.10,2013-07-12 05:26:00,
2013-07-11 22:41:00,56.8,21.0,30.00,East,100,0.0,-999.0,25,-99.99,,,0.00,weatherlink.com 1.10,2013-07-12 05:41:00,
2013-07-11 22:56:00,56.4,22.0,30.00,ENE,64,1.0,-999.0,26,-99.99,,,0.00,weatherlink.com 1.10,2013-07-12 05:56:00,
2013-07-11 23:11:00,55.8,22.0,30.00,NNE,32,0.0,-999.0,27,-99.99,,,0.00,weatherlink.com 1.10,2013-07-12 06:11:00,
2013-07-11 23:26:00,55.3,23.0,30.00,ENE,74,0.0,-999.0,29,-99.99,,,0.00,weatherlink.com 1.10,2013-07-12 06:26:00,
2013-07-11 23:42:00,54.5,24.0,30.00,NNE,20,2.0,-999.0,31,-99.99,,,0.00,weatherlink.com 1.10,2013-07-12 06:42:00,
2013-07-11 23:56:00,54.2,23.0,30.00,ENE,78,0.0,-999.0,30,-99.99,,,0.00,weatherlink.com 1.10,2013-07-12 06:56:00,